Wind_Speed
17 17 16 16 15 16 16 16 15 14 14 14 14 14 13 14 14 14 14 14 13 13 13 13 12 12 11 11 11 11 10 10 10 10 9 9 8 8 8 8 8 9 9
18 18 17 16 17 16 17 17 16 15 15 15 15 15 15 15 15 15 15 15 14 14 14 14 14 13 13 13 12 11 11 11 10 10 10 9 9 9 8 9 9 9 9
19 18 18 17 17 17 17 17 17 17 17 17 16 16 16 16 16 16 16 17 17 16 16 16 16 15 14 14 13 12 12 12 11 11 11 10 10 9 9 9 9 10 10
21 20 19 19 19 19 19 18 18 18 18 18 18 17 17 17 17 17 17 18 18 17 17 17 16 16 15 15 14 14 13 13 12 12 12 11 11 11 11 11 11 11 11
22 22 21 20 20 20 20 20 20 19 19 20 19 19 19 19 18 18 18 18 19 19 18 18 18 17 17 16 16 15 14 14 14 13 13 12 12 12 12 12 12 12 12
22 22 22 22 22 22 22 22 22 21 21 20 21 21 21 20 20 19 20 20 20 20 20 19 19 18 18 18 17 16 16 16 15 14 14 14 14 14 14 14 14 14 14
23 23 23 23 23 23 23 23 23 23 23 22 22 22 22 22 23 22 22 22 22 22 21 20 20 19 19 18 18 18 17 16 16 16 16 16 16 16 15 15 15 15 15
23 23 23 23 24 24 25 25 24 24 24 24 23 24 24 23 24 24 23 22 22 22 22 21 21 20 20 20 19 19 18 18 18 17 17 17 17 17 16 17 17 17 17
24 24 24 25 25 25 25 25 26 25 25 25 25 25 25 24 24 24 24 23 23 23 23 23 22 22 22 22 21 21 21 20 20 20 19 19 19 18 18 18 18 18 18
24 24 25 25 26 26 26 26 26 26 26 27 26 26 26 26 25 24 24 24 24 24 24 24 24 23 23 23 23 22 22 22 22 21 21 21 21 20 20 19 19 19 19
25 25 25 26 27 27 27 27 27 27 28 28 28 28 27 27 27 26 26 25 25 25 25 26 26 25 25 25 24 24 24 24 24 23 23 23 22 22 21 21 21 21 20
27 27 27 28 28 28 28 28 28 29 29 29 29 28 29 28 28 29 28 28 28 27 27 27 27 27 26 26 26 25 25 25 25 25 25 24 24 23 22 22 22 22 21
28 29 29 30 30 30 30 30 30 30 30 30 30 30 30 31 31 31 30 30 29 29 29 29 28 28 28 27 27 27 26 26 26 26 25 25 25 24 24 23 23 23 22
30 30 31 31 31 31 32 32 32 32 32 32 31 32 32 33 33 33 32 31 30 30 30 30 30 29 29 29 29 28 27 27 27 26 26 26 26 25 25 25 25 25 24
31 31 31 32 32 32 33 33 33 34 34 33 33 33 33 34 34 34 34 33 32 32 31 30 31 30 29 29 29 29 29 28 28 28 28 28 27 27 26 26 25 25 26
32 32 32 32 33 33 33 33 33 34 34 33 33 34 34 35 35 35 35 34 33 33 32 31 31 31 31 31 30 30 30 29 29 29 29 28 27 27 27 27 26 26 26
32 32 33 33 33 33 33 33 33 33 33 34 34 34 35 36 36 36 35 35 35 34 33 33 33 32 32 33 32 31 31 31 30 30 30 30 29 28 28 28 27 27 27
32 33 33 34 34 34 34 34 33 33 34 34 34 34 35 36 36 36 36 36 35 34 34 33 34 34 33 33 33 32 32 32 32 31 31 31 31 30 30 29 29 29 29
32 33 34 34 34 34 34 35 35 34 34 34 35 35 36 36 36 36 36 36 35 35 34 34 33 34 33 33 34 34 33 33 32 32 31 31 31 31 31 31 30 30 30
33 33 33 33 34 33 33 33 33 34 34 34 34 35 35 36 36 36 36 36 36 36 35 34 34 34 34 33 34 34 33 32 33 33 32 32 32 32 33 33 32 31 31
32 32 33 33 32 32 32 32 31 31 31 32 33 34 34 34 35 36 36 36 36 36 36 35 34 34 34 35 35 35 34 33 33 33 33 33 33 33 33 33 33 32 32
31 32 32 32 32 31 30 29 29 29 29 29 30 30 31 32 33 34 35 35 36 36 36 35 34 34 34 34 35 35 34 33 33 33 33 33 33 33 33 34 34 34 34
32 31 31 31 30 30 29 28 27 26 27 27 27 27 28 29 30 32 32 32 33 35 35 35 34 34 34 34 34 34 34 34 34 33 33 33 33 33 34 34 33 34 34
30 30 29 29 29 28 27 26 26 26 25 25 25 25 26 27 27 28 29 30 31 32 33 34 34 33 32 32 33 33 33 34 35 34 33 33 34 35 35 34 34 34 34
29 29 28 28 27 27 26 25 25 24 24 24 24 24 24 25 26 26 28 29 30 30 31 32 32 32 32 32 32 33 34 34 35 35 35 35 35 36 36 36 36 36 36
28 28 27 26 26 25 24 24 23 23 22 23 23 24 24 24 25 26 27 28 28 29 30 31 31 31 32 32 32 33 33 34 34 35 35 36 36 36 37 37 37 37 37
Wind_Direction
283 282 280 276 274 271 270 269 264 263 262 263 263 261 260 257 256 252 251 253 256 258 259 260 263 262 262 266 270 271 270 269 268 269 266 264 262 272 279 279 279 281 283
281 280 278 274 271 270 269 269 264 262 262 262 262 261 260 258 257 253 250 251 254 255 256 259 262 263 263 265 267 268 267 267 266 265 265 262 261 267 272 274 275 279 286
278 278 275 272 268 267 267 267 265 264 263 261 260 260 260 259 258 257 252 252 252 253 254 255 258 260 262 263 265 264 264 265 265 265 264 261 263 265 269 273 275 277 283
276 275 273 271 269 267 266 267 267 266 264 261 260 260 259 258 258 258 256 253 252 252 252 253 254 257 260 261 262 262 260 262 262 263 262 262 262 264 268 272 275 277 280
274 272 271 270 270 269 268 268 267 266 264 263 261 259 260 258 258 259 256 254 253 253 253 252 252 254 257 258 259 258 257 259 261 262 262 264 264 266 269 271 274 275 276
274 272 270 269 269 270 269 268 268 266 266 266 263 260 260 260 258 258 258 255 254 253 253 253 253 254 255 256 255 256 256 258 259 261 262 264 266 268 270 271 272 273 275
273 272 271 269 269 269 268 267 266 266 266 265 263 262 260 260 259 258 258 257 255 252 252 252 253 253 253 255 255 255 256 257 259 262 263 264 265 267 269 269 269 271 274
274 272 271 270 269 268 268 267 266 265 265 263 263 261 260 261 260 257 257 256 253 251 249 250 252 254 254 256 254 254 255 256 257 260 263 264 265 265 267 268 269 271 274
275 274 274 273 271 269 267 266 266 265 264 262 262 262 260 260 259 256 255 254 253 250 249 250 253 254 255 256 254 253 255 256 257 259 262 264 265 266 266 266 267 270 272
275 275 276 275 273 271 269 268 267 266 264 263 261 260 258 257 256 255 254 253 253 252 251 250 252 254 256 256 255 253 255 256 258 261 263 264 264 265 266 266 267 269 271
276 276 276 275 273 271 269 268 267 266 266 264 262 260 257 255 254 254 254 255 254 253 252 251 252 254 255 257 256 254 254 256 258 261 263 264 264 263 264 265 267 268 270
276 275 275 275 273 272 271 270 268 266 266 265 262 259 257 255 253 254 254 255 255 254 253 252 252 253 255 256 255 256 255 256 259 262 263 264 265 265 265 266 268 268 270
277 276 276 275 273 272 272 271 270 268 267 265 262 258 256 255 254 254 254 255 255 255 254 253 253 254 255 256 255 256 255 256 258 260 262 264 265 266 267 268 269 269 270
278 278 278 277 275 274 273 272 271 269 268 266 262 259 256 255 255 254 253 255 255 254 254 253 252 253 254 255 256 255 254 255 257 259 260 262 264 265 267 267 267 269 270
278 278 279 279 277 276 275 273 272 270 268 266 262 259 257 256 256 255 254 255 255 255 254 253 251 251 252 253 254 253 254 255 256 258 259 261 262 264 265 266 268 270 271
280 279 279 279 278 277 276 274 271 269 267 266 262 260 258 257 256 255 254 253 253 254 254 253 253 252 250 251 252 253 253 255 256 258 259 260 261 264 265 266 268 270 272
282 280 281 280 279 278 276 274 271 268 267 265 263 261 257 256 255 254 253 252 252 252 252 252 253 253 252 251 251 252 252 254 256 258 258 259 260 262 265 267 268 269 272
283 282 283 282 281 278 276 274 271 268 267 265 263 260 258 256 254 252 251 250 251 250 250 251 252 251 252 252 250 250 252 254 256 257 257 258 259 261 263 266 268 269 271
285 285 284 284 283 281 278 274 272 270 268 266 262 258 257 255 253 251 250 250 250 250 250 251 252 252 251 251 250 250 252 253 256 256 257 258 259 260 263 265 267 269 270
288 287 286 285 283 281 280 277 275 271 268 265 262 259 256 254 253 252 250 249 250 250 250 251 252 252 251 251 251 251 253 255 255 256 256 257 258 259 261 263 265 267 269
289 289 288 286 285 282 280 278 276 273 269 265 261 258 256 255 254 252 251 249 250 250 250 249 250 251 251 251 250 250 252 253 255 255 256 257 258 258 260 261 263 265 267
290 290 288 287 286 284 281 280 278 275 269 265 261 258 256 255 254 253 252 251 249 249 249 249 249 250 251 251 250 250 250 251 252 253 254 256 257 258 260 262 263 264 266
291 290 288 286 285 283 280 279 278 274 270 265 263 260 258 257 257 255 253 252 250 250 250 249 249 250 251 251 250 250 251 251 251 252 253 254 256 258 261 263 264 265 267
292 290 288 286 285 283 280 278 276 273 268 265 262 260 260 259 257 256 253 251 250 250 250 250 250 250 251 251 251 250 251 253 254 254 255 256 258 259 261 262 263 265 267
291 291 289 287 285 282 279 276 274 270 266 264 263 261 261 261 259 256 254 252 251 250 251 251 251 251 251 251 251 251 252 254 255 255 256 258 260 260 262 263 264 266 267
292 290 288 286 283 280 276 274 271 268 265 265 263 262 262 263 262 259 257 254 253 253 252 251 250 251 252 251 252 253 253 255 256 257 257 259 260 261 262 263 264 266 268
Height
5812 5811 5811 5810 5810 5810 5810 5810 5810 5811 5811 5812 5813 5813 5813 5814 5814 5814 5815 5816 5816 5817 5817 5818 5818 5818 5818 5818 5818 5818 5818 5818 5818 5818 5818 5818 5818 5818 5818 5818 5818 5817 5817
5807 5807 5806 5805 5805 5805 5805 5805 5806 5806 5807 5807 5808 5809 5809 5809 5810 5810 5811 5812 5812 5813 5814 5814 5814 5815 5815 5815 5815 5815 5815 5815 5816 5816 5816 5816 5816 5816 5816 5816 5815 5815 5814
5802 5802 5801 5800 5800 5800 5800 5800 5801 5801 5802 5802 5803 5804 5804 5805 5805 5806 5807 5807 5808 5809 5809 5810 5810 5811 5811 5812 5812 5812 5812 5812 5813 5813 5813 5813 5813 5813 5813 5813 5813 5812 5812
5796 5796 5795 5795 5795 5795 5795 5795 5796 5796 5796 5797 5798 5798 5799 5800 5800 5801 5802 5802 5803 5804 5805 5806 5806 5807 5807 5808 5808 5808 5809 5809 5810 5810 5810 5810 5810 5810 5810 5810 5810 5809 5809
5790 5789 5789 5789 5789 5789 5789 5789 5790 5790 5791 5791 5792 5793 5794 5794 5795 5796 5796 5797 5798 5799 5800 5801 5801 5802 5803 5803 5804 5804 5805 5805 5806 5806 5807 5807 5807 5807 5807 5807 5806 5806 5805
5784 5783 5783 5782 5782 5783 5783 5783 5783 5784 5784 5785 5785 5786 5787 5788 5789 5789 5790 5791 5792 5793 5795 5795 5796 5797 5798 5799 5799 5800 5801 5801 5802 5802 5803 5803 5803 5803 5803 5803 5803 5802 5802
5777 5776 5776 5775 5776 5776 5775 5776 5776 5777 5777 5778 5779 5779 5780 5781 5782 5783 5784 5785 5786 5787 5789 5790 5791 5792 5792 5793 5794 5795 5796 5797 5798 5798 5798 5798 5799 5799 5799 5799 5798 5798 5798
5769 5769 5768 5768 5768 5768 5768 5768 5769 5769 5769 5770 5771 5772 5773 5774 5775 5776 5777 5778 5779 5781 5782 5784 5785 5786 5787 5788 5789 5790 5791 5792 5792 5793 5794 5794 5794 5794 5794 5794 5794 5794 5793
5762 5761 5760 5760 5760 5760 5760 5761 5761 5761 5762 5762 5763 5764 5765 5766 5767 5768 5770 5771 5772 5774 5775 5777 5779 5780 5781 5782 5783 5784 5785 5786 5787 5787 5788 5788 5788 5789 5789 5789 5789 5788 5788
5754 5753 5753 5752 5752 5752 5752 5753 5753 5753 5754 5754 5755 5756 5757 5758 5759 5761 5762 5764 5765 5767 5768 5770 5772 5773 5774 5775 5776 5778 5779 5780 5780 5781 5781 5782 5782 5782 5783 5783 5783 5783 5782
5746 5746 5745 5744 5744 5743 5744 5744 5744 5744 5745 5745 5746 5747 5748 5749 5751 5752 5754 5756 5757 5759 5761 5762 5764 5765 5766 5768 5769 5771 5772 5773 5773 5774 5775 5775 5775 5776 5776 5776 5776 5777 5776
5738 5737 5736 5736 5735 5734 5734 5735 5735 5735 5735 5736 5737 5738 5739 5740 5742 5744 5746 5747 5749 5751 5752 5754 5756 5757 5758 5760 5761 5763 5764 5765 5766 5767 5767 5768 5769 5769 5769 5769 5770 5770 5770
5729 5728 5727 5726 5726 5725 5725 5725 5725 5725 5725 5726 5727 5728 5730 5731 5733 5734 5736 5738 5740 5741 5743 5745 5747 5749 5750 5751 5753 5754 5755 5757 5758 5759 5760 5761 5761 5762 5762 5762 5762 5763 5763
5719 5718 5717 5716 5715 5715 5714 5714 5714 5714 5714 5715 5716 5717 5719 5721 5723 5724 5727 5728 5730 5732 5734 5736 5738 5740 5741 5743 5744 5746 5747 5749 5750 5751 5752 5753 5754 5754 5755 5755 5755 5755 5755
5709 5708 5707 5706 5705 5704 5703 5702 5702 5702 5702 5703 5705 5706 5708 5710 5712 5714 5716 5718 5720 5722 5724 5726 5728 5730 5732 5733 5735 5737 5738 5740 5742 5743 5744 5745 5746 5746 5747 5747 5747 5747 5748
5699 5698 5696 5695 5694 5693 5692 5691 5690 5690 5690 5691 5692 5694 5696 5698 5700 5702 5705 5707 5709 5711 5714 5716 5718 5720 5722 5724 5726 5728 5729 5731 5733 5734 5735 5736 5737 5738 5738 5739 5739 5739 5739
5688 5687 5685 5684 5682 5681 5680 5679 5679 5679 5679 5680 5681 5682 5684 5686 5688 5690 5693 5695 5698 5700 5703 5706 5708 5710 5712 5714 5716 5718 5720 5722 5723 5725 5726 5727 5728 5729 5730 5730 5730 5731 5731
5678 5676 5674 5673 5671 5670 5669 5668 5667 5668 5669 5669 5670 5670 5672 5673 5675 5678 5681 5683 5686 5689 5692 5695 5697 5699 5702 5704 5706 5708 5710 5712 5713 5715 5716 5718 5719 5720 5721 5721 5722 5722 5722
5667 5665 5663 5661 5659 5658 5657 5656 5656 5656 5656 5657 5657 5658 5660 5661 5663 5666 5669 5672 5675 5679 5681 5684 5686 5688 5691 5693 5695 5697 5699 5701 5703 5705 5706 5708 5709 5710 5711 5712 5712 5712 5713
5657 5654 5652 5650 5648 5646 5645 5644 5644 5643 5644 5644 5645 5647 5648 5649 5652 5655 5658 5661 5664 5667 5670 5672 5675 5677 5680 5682 5684 5687 5689 5691 5693 5694 5696 5697 5698 5700 5701 5702 5702 5703 5703
5646 5643 5641 5639 5637 5635 5634 5633 5632 5632 5632 5632 5633 5635 5636 5638 5641 5643 5646 5649 5653 5656 5658 5661 5663 5666 5668 5671 5673 5676 5678 5680 5682 5683 5685 5687 5688 5689 5690 5691 5692 5692 5693
5636 5633 5631 5628 5627 5625 5624 5623 5622 5621 5621 5622 5623 5624 5625 5627 5630 5632 5635 5638 5641 5644 5647 5650 5652 5655 5657 5659 5662 5664 5666 5668 5671 5672 5674 5675 5677 5678 5680 5681 5681 5682 5682
5626 5623 5621 5619 5617 5615 5614 5613 5612 5612 5612 5612 5613 5614 5616 5618 5620 5622 5624 5626 5629 5633 5635 5638 5641 5644 5646 5648 5650 5653 5655 5657 5659 5661 5663 5664 5666 5667 5669 5669 5670 5670 5671
5616 5614 5611 5609 5608 5606 5605 5604 5604 5603 5603 5604 5604 5606 5607 5609 5610 5612 5614 5616 5619 5621 5624 5627 5630 5633 5635 5637 5639 5641 5643 5645 5647 5649 5651 5653 5655 5656 5657 5658 5659 5660 5660
5607 5605 5603 5601 5599 5598 5597 5596 5595 5595 5595 5596 5597 5598 5599 5600 5602 5603 5605 5607 5609 5611 5614 5616 5619 5622 5624 5626 5628 5630 5632 5634 5636 5638 5639 5641 5643 5644 5645 5647 5647 5648 5648
5599 5596 5594 5593 5591 5590 5589 5588 5588 5588 5588 5589 5589 5590 5592 5593 5594 5595 5596 5598 5600 5602 5604 5606 5609 5611 5613 5615 5618 5620 5621 5623 5625 5626 5628 5629 5631 5632 5633 5634 5635 5636 5636